Regional Weather Roundup
Issued by NWS State College, PA

Home | Current Version | Previous Version | Graphics & Text | Print | Product List | Glossary On
Versions: 1 2 3 4 5 6 7 8 9 10 11 12 13 14 15 16 17 18 19 20 21 22 23 24 25 26 27 28 29 30 31 32 33 34 35 36 37 38 39 40 41 42 43 44 45 46 47 48 49 50
000
ASUS41 KCTP 232303
RWRCTP

REGIONAL WEATHER ROUNDUP
NATIONAL WEATHER SERVICE STATE COLLEGE PA
700 PM EDT WED APR 23 2014

Note: "fair" indicates few or no clouds below 12,000 feet with no
significant weather and/or obstructions to visibility.

* = STATION THAT DOES NOT REPORT PRECIPITATION /E.G. RAIN...SNOW...ETC/
    THUNDER OR FOG.

PAZ002>004-007>009-013>016-020>023-029>032-240000-
WESTERN PENNSYLVANIA

CITY           SKY/WX    TMP DP  RH WIND       PRES   REMARKS
ERIE           SUNNY     43  27  53 W12G17    30.04R
MEADVILLE      SUNNY     43  17  35 NW10      30.02S
FRANKLIN*      SUNNY     43  21  42 NW13G20   30.03R
NEW CASTLE     FAIR      47  21  35 NW9G22    30.05R
BEAVER COUNTY  SUNNY     48  27  43 NW12G18   30.03R
BUTLER*        SUNNY     46  27  46 W10G21    30.03S
PITTSBURGH INT MOSUNNY   49  29  46 NW14      30.02S
PITTSBURGH     MOSUNNY   48  28  46 NW10      30.01S
INDIANA*       MOSUNNY   45  28  53 NW12G22   29.99R
LATROBE        PTSUNNY   46  32  57 NW13      30.01S
WASHINGTON CO* PTSUNNY   48  30  49 NW5       30.05R
$$

PAZ004>006-010>012-017>019-024>028-033>037-041-042-045-046-049>053-240000-
CENTRAL PENNSYLVANIA

CITY           SKY/WX    TMP DP  RH WIND       PRES   REMARKS
BRADFORD       MOSUNNY   42  24  49 NW20G26   29.92S
DUBOIS         MOSUNNY   44  27  51 NW15G22   29.94S
CLEARFIELD     MOSUNNY   45  27  49 NW10G18   29.94S
JOHNSTOWN      CLOUDY    40  28  62 W14G23    29.94R
ALTOONA        MOSUNNY   46  31  55 NW7       29.95R
STATE COLLEGE  MOSUNNY   45  25  45 NW14      29.94S
WILLIAMSPORT   MOCLDY    49  28  44 NW10      29.88R
SELINSGROVE    MOCLDY    48  30  49 NW20G30   29.89R
FT INDIANTOWN  CLOUDY    49  31  50 NW8G17    29.86R
CAPITAL CITY   MOCLDY    49  32  52 NW25G33   29.89R
HARRISBURG     MOCLDY    50  33  52 NW30      29.87R
YORK           MOCLDY    50  33  52 NW16G28   29.88R
$$

PAZ038>040-043-044-047-048-054-055-060>062-067>071-240000-
EASTERN PENNSYLVANIA

CITY           SKY/WX    TMP DP  RH WIND       PRES   REMARKS
SCRANTON       CLOUDY    42  33  70 NW17G24   29.84R
MOUNT POCONO   LGT RAIN  38  32  79 NW20G35   29.76R
ALLENTOWN      CLOUDY    51  32  48 NW18G29   29.79R
QUAKERTOWN*    MOCLDY    50  32  50 NW16G30   29.78R
READING        MOCLDY    53  33  46 NW20G25   29.80R
LANCASTER      MOCLDY    50  33  52 NW24G32   29.83R
COATESVILLE    MOCLDY    50  34  53 NW17G26   29.81R
POTTSTOWN      MOCLDY    52  33  48 NW18G26   29.79R
BLUE BELL      CLOUDY    55  34  44 NW9G22    29.76R
DOYLESTOWN     CLOUDY    51  34  52 NW18G29   29.75R
WILLOW GROVE   NOT AVBL
NORTH PHILA    CLOUDY    57  32  38 NW20G28   29.77R
PHILADELPHIA   MOCLDY    58  31  35 NW20G30   29.78R
$$



USA.gov is the U.S. government's official web portal to all federal, state and local government web resources and services.